User: anonymous   Login
Location: Cosy Dell
(34.2789°N, 117.4537°W)
Time: 12:20:49
(UTC+00:00)
Language:

Cosmos 1536 - Orbit

View from above orbital plane
View from above orbital plane
View from above satellite
View from above satellite

Ground track
Ground track

The orbit data is extracted from the following two-line orbital elements,

1 14699U 84013A   20262.53809460 +.00000806 +00000-0 +53827-4 0  9995
2 14699 082.5230 257.4985 0011874 322.9205 037.1200 15.05632078970865
Epoch (UTC): 18 September 2020 12:54:51
Eccentricity: 0.0011874
inclination: 82.5230°
perigee height: 541 km
apogee height: 558 km
right ascension of ascending node: 257.4985°
argument of perigee: 322.9205°
revolutions per day: 15.05632078
mean anomaly at epoch: 37.1200°
orbit number at epoch: 97086

The dashed part of the orbit path shows where the satellite is in the earth's shadow,  

DLR